RH
27 30 32 29 28 25 32 39 48 50 50 49 47 45 39 37 35 32 32 35 39 43 46 49 51 51 54 59 67 81 90 94 98 98 97 94 90 96 95 94 84 73 65
28 31 32 30 27 23 31 38 45 49 50 50 48 45 42 39 35 33 34 35 38 43 47 51 53 53 52 55 64 78 82 90 97 98 97 93 91 96 95 90 83 76 70
28 31 32 30 27 23 28 37 42 48 49 49 49 47 44 42 37 36 35 35 40 47 51 53 56 56 54 54 57 66 84 86 95 96 90 94 92 95 95 92 87 82 75
27 30 32 31 28 22 27 36 40 46 50 49 50 50 48 46 42 38 36 38 43 47 53 56 58 59 59 56 54 56 80 86 90 93 91 86 94 95 93 94 95 84 77
27 30 32 32 29 22 25 33 39 43 50 50 50 51 50 49 47 43 39 41 43 45 52 58 60 64 62 58 54 53 62 84 87 78 87 91 93 96 94 96 98 92 83
27 29 33 34 29 23 24 30 35 41 47 51 49 50 51 52 52 48 45 50 48 48 53 58 62 65 64 63 57 54 56 73 78 76 90 92 95 95 94 96 96 93 94
27 30 33 34 30 24 24 27 33 39 45 52 51 50 52 53 54 51 49 55 53 55 60 59 63 68 68 65 62 56 53 60 77 75 90 93 93 97 97 95 95 96 97
26 30 33 34 30 25 25 27 31 37 44 50 53 52 52 53 56 56 53 62 57 58 65 65 67 70 70 68 66 61 56 54 64 76 89 89 93 96 97 97 96 95 96
26 30 33 33 29 26 26 27 30 35 42 49 53 54 53 54 56 57 56 58 63 68 68 71 72 74 73 71 70 67 62 58 61 67 80 82 84 92 94 97 97 95 94
28 30 33 32 27 26 27 28 30 32 38 46 52 55 55 56 56 57 58 55 57 69 73 74 74 77 77 75 73 71 67 61 59 61 61 66 79 89 92 97 94 94 94
29 29 30 29 27 26 26 28 29 29 32 37 44 51 55 55 57 58 59 59 56 61 70 80 78 80 79 78 77 73 71 68 63 68 75 72 74 83 90 93 97 97 98
29 28 29 30 29 27 25 25 27 26 27 31 34 40 44 55 55 56 59 60 61 61 64 74 82 82 82 80 77 76 75 72 67 68 76 76 69 70 77 97 98 98 98
28 28 30 32 31 30 27 24 24 25 26 28 30 32 36 38 49 55 55 57 57 59 62 66 78 84 84 83 81 78 78 74 70 68 79 82 78 73 76 95 97 95 96
27 28 32 33 33 32 31 28 26 24 26 26 27 30 35 33 34 39 49 54 55 56 59 65 67 78 82 83 82 80 78 76 75 72 68 76 87 87 83 91 98 98 97
27 29 32 35 35 34 33 32 29 27 25 24 26 29 33 37 36 29 33 40 52 55 54 57 66 66 77 80 81 80 79 78 77 74 72 69 79 81 86 88 90 94 97
28 30 32 35 35 36 35 33 31 28 24 23 24 26 29 30 29 27 22 25 29 42 53 55 56 62 66 77 79 79 80 81 78 77 76 73 71 68 67 77 85 95 97
29 30 32 35 34 34 34 33 30 27 24 23 22 22 23 25 28 30 30 23 20 20 25 39 49 55 59 63 75 79 80 80 81 81 80 77 76 73 72 70 70 77 82
31 30 31 34 34 33 33 31 30 26 23 21 21 19 20 22 25 30 32 33 27 21 19 21 27 37 47 54 62 72 77 81 82 82 81 80 79 79 77 75 73 72 77
32 31 31 33 34 33 33 30 29 26 23 22 21 21 21 21 22 25 29 33 36 33 27 22 20 22 28 35 44 56 67 75 79 82 84 85 85 84 84 83 81 79 78
33 32 32 34 36 35 34 31 29 26 25 25 24 24 23 23 25 26 28 32 35 37 38 31 26 21 20 23 28 36 46 60 70 76 80 84 87 89 88 89 89 85 82
34 32 33 35 37 37 36 34 31 29 27 27 26 25 24 23 24 26 29 31 35 38 40 41 37 30 25 20 19 24 29 38 51 62 71 78 82 88 92 92 94 94 90
38 34 34 35 38 39 38 36 33 31 30 28 27 26 26 25 24 24 27 29 31 35 40 42 43 42 37 30 24 19 20 25 30 40 54 64 71 80 85 91 94 96 96
41 39 37 36 38 40 40 38 36 35 33 31 29 27 26 25 25 23 24 26 28 30 33 36 41 45 45 42 37 31 25 20 21 25 30 41 53 63 72 82 89 92 97
43 43 42 37 38 42 42 41 39 37 36 34 31 29 27 26 25 24 23 24 24 26 29 31 33 37 43 47 47 43 39 33 27 22 22 25 31 40 51 62 74 85 90
44 46 46 41 39 43 45 43 42 40 39 37 35 32 30 28 27 26 25 24 24 24 25 26 28 31 34 37 43 48 48 45 41 35 29 24 24 27 31 41 50 61 73
47 47 48 45 40 44 47 46 45 43 42 41 38 36 33 31 30 29 28 26 26 25 24 24 24 25 26 28 31 35 41 47 48 47 44 39 32 27 28 31 34 40 49